Regional Weather Roundup
Issued by NWS

Home | Current Version | Previous Version | Graphics & Text | Print | Product List | Glossary On
Versions: 1 2 3 4 5 6 7 8 9 10 11 12 13 14 15 16 17 18 19 20 21 22 23 24 25 26 27 28 29 30 31 32 33 34 35 36 37 38 39 40 41 42 43 44 45 46 47 48 49 50
000
ASUS44 KMEG 311200
RWRTN
TENNESSEE HOURLY STATE WEATHER ROUNDUP
NATIONAL WEATHER SERVICE MEMPHIS TN
700 AM CDT THU JUL 31 2014

TNZ002-004-019-021-049-052-054-088>092-311300-
WEST TENNESSEE

CITY           SKY/WX    TMP DP  RH WIND       PRES   REMARKS
MEMPHIS INTL   CLOUDY    71  66  84 W3        30.09S
NWS MEMPHIS      N/A     69 N/A N/A MISG        N/A
JACKSON        CLOUDY    67  64  90 CALM      30.09S
DYERSBURG      CLOUDY    68  59  73 CALM      30.10S
UNION CITY     CLOUDY    68  66  94 CALM      30.09R
PARIS          CLOUDY    64  61  88 CALM      30.10R
LEXINGTON      PTSUNNY   64  63  94 CALM      30.09S
SAVANNAH       MOSUNNY   64  64 100 CALM      30.09S
$$

TNZ008-025-027-028-033-062-065-066-311300-
NORTH MIDDLE TENNESSEE

CITY           SKY/WX    TMP DP  RH WIND       PRES   REMARKS
NASHVILLE      PTSUNNY   64  61  90 CALM      30.10S
CLARKSVILLE    MOSUNNY   60  57  89 CALM      30.10R
COOKEVILLE     SUNNY     57  57 100 CALM      30.11S
CROSSVILLE     CLOUDY    60  57  89 CALM      30.14S FOG
$$

TNZ061-075-076-078-094-096-097-311300-
SOUTH MIDDLE TENNESSEE

CITY           SKY/WX    TMP DP  RH WIND       PRES   REMARKS
FAYETTEVILLE   SUNNY     64  59  82 NE9       30.11R
TULLAHOMA      SUNNY     64  61  88 CALM      30.12R
WINCHESTER     SUNNY     63  61  94 CALM      30.11R
MCMINNVILLE    SUNNY     61  61 100 CALM      30.11S
COLUMBIA       SUNNY     64  63  94 CALM      30.09S
SHELBYVILLE    SUNNY     63  63 100 CALM      30.12R
$$

TNZ017-018-042-046-047-311300-
NORTHEAST TENNESSEE

CITY           SKY/WX    TMP DP  RH WIND       PRES   REMARKS
TRI CITIES     PTSUNNY   59  55  87 CALM      30.16R
ELIZABETHTON   SUNNY     57  55  94 CALM        N/A
$$

TNZ012-013-036-069-073-074-311300-
CENTRAL EAST TENNESSEE

CITY           SKY/WX    TMP DP  RH WIND       PRES   REMARKS
KNOXVILLE      CLOUDY    62  59  90 NE6       30.09F
OAK RIDGE      CLOUDY    63  62  97 CALM      30.12S FOG
GATLINBURG     SUNNY     59  55  88 CALM      30.11S
$$

TNZ083-085-099-311300-
SOUTHEAST TENNESSEE

CITY           SKY/WX    TMP DP  RH WIND       PRES   REMARKS
CHATTANOOGA    CLOUDY    69  61  75 N5        30.09R
$$

SKY/WX REPORTED AS FAIR MEANS FEW OR NO CLOUDS BELOW
12 THOUSAND FEET.



USA.gov is the U.S. government's official web portal to all federal, state and local government web resources and services.